RH
49 51 51 48 33 19 17 19 19 15 8 4 7 7 8 11 14 15 16 15 15 14 13 11 10 10 12 14 16 15 13 11 11 10 10 9 10 10 9 11 23 37 52 67 75 75 75 77 75 66 58 59 65 69 64 65 72 73 70 68 64 63 67 69 70 73 75 77 80 82 88 90 84 78 78 79 82 83 80 77 79 79 75 69 60
45 47 50 43 28 18 17 18 19 16 8 5 6 6 8 13 17 18 19 18 17 16 15 15 14 12 11 12 14 14 12 11 10 9 10 10 10 10 9 11 23 39 49 60 74 80 78 79 78 67 55 58 72 78 71 68 71 70 66 64 64 65 71 76 74 73 75 78 81 83 85 86 83 77 78 84 89 88 83 79 79 82 82 80 68
44 41 42 35 24 20 18 17 19 16 8 4 6 7 10 15 18 20 20 19 18 17 17 17 17 16 13 11 12 12 11 11 11 10 10 10 11 11 10 11 17 34 50 62 77 82 79 82 84 74 67 70 76 79 76 70 67 66 66 69 70 66 67 74 74 72 74 78 82 84 82 82 83 82 83 90 94 90 85 82 80 80 83 81 71
46 45 42 32 23 22 19 16 18 15 8 4 5 7 13 18 21 22 21 19 19 18 19 19 19 19 16 13 13 12 13 13 12 13 12 12 13 11 12 11 12 33 61 69 72 78 79 82 87 84 80 78 76 76 76 72 68 68 71 77 77 68 66 71 70 69 72 74 76 79 80 82 85 87 90 95 94 88 86 86 82 79 81 79 72
45 46 39 29 23 22 19 16 17 15 8 4 5 8 15 21 22 22 21 21 20 19 20 20 20 20 19 17 16 15 16 16 15 16 15 16 16 12 14 15 12 36 71 74 69 80 85 82 83 83 82 81 79 77 75 74 75 76 79 84 84 77 74 76 77 76 74 72 73 76 79 82 85 86 90 94 93 88 85 87 86 82 80 77 72
40 40 33 26 23 22 19 16 16 15 8 3 4 10 17 22 23 24 23 23 22 21 21 23 23 25 24 24 25 24 23 22 19 19 19 19 18 13 14 21 27 49 74 75 71 81 87 87 86 83 82 81 82 83 80 80 83 84 85 87 84 80 78 79 81 81 78 74 75 77 79 81 83 85 91 95 93 90 87 85 85 84 81 77 74
38 35 29 25 23 22 18 16 16 13 6 2 4 10 19 24 25 26 26 25 26 25 27 29 30 32 33 32 34 33 31 28 24 24 24 20 19 15 14 30 57 77 82 76 73 76 81 86 87 82 80 80 80 81 82 84 85 83 80 81 83 82 81 80 78 78 78 76 75 78 80 80 80 84 91 95 92 91 93 89 84 84 82 78 77
34 30 26 25 25 22 18 15 15 12 6 3 4 9 20 27 28 29 29 29 30 31 34 37 37 39 40 39 41 41 40 37 30 27 26 23 20 16 18 43 74 87 89 89 86 80 80 84 84 81 81 81 78 77 78 81 84 83 79 79 84 86 82 79 77 78 81 80 77 79 79 79 80 83 87 89 87 90 96 94 88 84 82 80 78
28 27 26 27 26 22 18 14 13 11 6 3 3 8 19 28 31 32 33 33 33 35 39 42 42 43 44 45 47 49 49 47 40 34 30 27 23 16 22 53 81 85 89 97 96 89 87 86 84 82 81 83 83 80 78 80 83 85 81 75 75 77 77 77 76 78 83 83 81 82 80 79 81 84 85 86 86 90 95 95 92 88 83 80 79
26 26 26 26 26 22 17 14 11 8 5 3 3 6 15 26 33 35 36 37 37 38 43 47 47 47 48 51 54 55 56 54 49 43 37 31 27 19 18 42 74 87 92 97 97 96 92 86 82 80 79 81 84 83 82 82 82 83 80 74 71 71 73 75 74 73 76 78 80 81 82 83 83 84 85 85 86 92 96 96 96 94 88 83 80
26 26 25 25 25 20 15 12 10 7 4 3 3 4 9 20 30 35 38 40 39 39 43 48 50 50 51 55 57 58 58 58 55 50 45 38 32 26 19 24 46 69 84 94 98 97 93 86 80 76 73 73 76 79 82 82 80 79 77 75 75 76 77 80 79 76 74 75 76 76 78 82 85 86 87 85 84 87 93 96 97 98 94 87 82
27 26 26 26 23 19 15 11 8 6 4 2 3 4 6 13 22 32 39 40 40 41 42 45 49 52 53 55 56 56 57 58 58 54 51 46 39 34 27 20 24 38 57 76 89 92 90 86 80 75 72 72 70 72 79 83 84 84 80 77 78 80 82 83 82 81 79 79 79 77 77 81 85 87 89 89 86 86 90 93 96 96 94 91 87
30 28 27 26 23 18 14 11 8 6 4 2 3 3 5 7 13 24 36 40 41 42 43 45 47 50 53 54 55 54 54 55 57 56 54 51 46 42 36 28 23 23 31 47 66 79 83 82 79 75 73 74 72 70 75 82 84 83 80 79 81 84 86 85 83 81 80 80 81 81 81 84 88 90 93 94 93 91 90 90 92 94 94 94 94
35 31 27 25 23 18 14 11 8 5 3 2 3 3 3 4 6 12 24 33 40 44 46 47 48 48 51 54 54 53 53 54 55 55 55 54 50 48 44 37 30 24 23 30 41 53 63 69 72 73 72 71 69 71 78 83 83 82 81 84 87 85 84 82 80 78 77 77 81 84 85 87 91 94 95 95 94 92 90 89 89 91 94 95 95
45 38 32 27 24 20 15 12 9 6 4 2 2 3 2 2 3 4 9 17 30 42 48 49 50 50 50 52 54 54 55 57 56 54 55 55 55 53 49 45 40 31 26 29 34 35 39 45 53 60 61 55 54 68 83 87 85 84 83 84 83 78 74 73 71 69 71 73 78 84 88 88 90 95 96 95 93 91 92 94 93 93 95 96 96
58 50 40 32 27 22 17 13 10 7 4 3 2 2 3 2 2 2 2 5 14 29 43 49 51 52 51 51 52 53 54 57 57 54 52 53 56 58 54 50 48 44 42 46 46 36 29 30 35 40 45 42 45 66 87 87 81 82 84 82 77 70 65 61 57 58 62 69 76 84 89 90 90 94 96 95 93 92 94 100 100 97 98 99 99
66 59 48 36 29 25 20 15 12 9 6 4 3 2 2 2 2 2 2 2 4 13 29 44 50 51 51 50 50 50 51 55 57 55 54 54 55 57 59 57 54 56 62 65 58 40 26 26 28 30 36 40 42 58 80 86 80 79 81 77 69 64 60 52 46 47 54 67 80 88 92 95 95 97 98 97 95 94 97 101 101 100 100 100 100
68 64 54 42 32 27 23 18 13 11 8 6 4 3 3 3 2 2 2 3 5 6 15 31 44 49 48 48 49 48 48 52 56 55 54 56 56 55 57 59 59 61 63 64 60 46 29 24 25 26 31 36 36 44 65 80 81 78 77 72 65 61 58 51 44 42 48 62 78 90 97 99 98 98 98 97 96 96 98 99 99 100 101 100 100
70 69 62 50 37 30 27 23 17 12 9 7 5 3 3 2 2 3 2 3 7 10 10 17 31 43 46 46 46 45 45 49 54 55 53 54 57 57 54 55 60 63 60 58 58 49 33 24 24 25 27 32 34 36 46 64 76 76 73 71 68 63 58 54 48 44 46 53 64 80 95 101 100 101 99 97 97 96 96 97 97 98 100 99 100
69 72 71 64 53 42 32 26 21 16 11 8 7 4 3 3 2 2 3 3 6 12 15 14 19 31 41 45 44 43 43 44 48 52 52 50 52 55 53 52 57 65 66 61 55 46 37 32 29 27 27 30 33 34 36 44 57 65 66 64 66 66 63 58 54 49 47 51 55 66 81 87 89 93 96 96 97 96 96 97 97 97 98 98 99
68 70 72 71 67 59 47 34 26 20 15 10 8 5 3 3 3 2 2 3 5 10 16 18 17 21 31 40 43 43 44 44 44 48 51 49 48 51 51 48 50 58 65 65 57 50 47 43 36 31 30 30 32 36 39 41 43 49 56 57 59 67 69 64 60 55 50 51 53 60 70 75 76 81 84 87 91 95 96 98 98 99 99 99 99
66 68 70 70 69 68 63 49 34 25 19 13 9 7 4 2 3 3 2 3 6 9 13 18 20 20 23 30 37 42 44 44 43 44 46 46 45 48 50 47 46 52 59 63 61 57 54 48 42 38 35 34 33 34 44 59 60 56 60 64 65 72 77 72 66 61 56 55 55 58 66 73 75 77 79 80 83 87 90 93 95 96 96 96 97
61 65 69 70 70 72 71 61 46 33 25 17 11 8 6 4 2 3 2 3 7 11 14 18 22 23 23 25 29 37 43 44 43 43 44 44 44 47 49 49 48 51 57 63 65 62 57 52 48 44 40 39 39 33 38 57 63 56 61 72 72 71 76 75 70 65 62 61 61 61 63 67 71 72 72 74 75 76 79 81 82 83 83 83 84
57 63 69 72 72 73 74 70 57 41 31 24 16 10 8 5 3 3 3 3 6 11 15 20 25 26 25 24 25 31 38 41 41 41 42 42 43 46 48 49 51 52 55 63 68 64 60 57 53 49 45 42 42 39 36 41 43 40 50 71 78 72 68 70 71 68 64 63 67 68 65 63 65 67 67 68 70 70 70 69 68 68 68 67 68
55 61 72 77 74 72 75 75 66 51 37 30 22 14 10 7 4 3 3 3 5 8 14 21 27 28 26 22 23 29 35 37 40 42 42 42 44 47 48 50 52 52 54 62 70 69 65 62 57 53 51 46 43 44 41 39 39 40 45 59 70 68 64 67 71 67 62 60 62 65 64 60 61 64 65 66 66 63 59 56 55 55 58 60 62
55 57 69 79 79 74 74 76 74 63 49 38 31 22 13 9 7 4 3 3 3 6 13 21 27 29 27 22 22 29 33 34 37 39 39 41 42 44 45 47 49 52 54 60 69 72 70 67 63 58 56 53 50 50 48 45 44 45 43 45 52 57 60 65 65 58 52 52 54 59 61 59 58 62 64 64 62 56 51 52 53 56 61 66 68
60 58 63 74 79 76 72 74 77 75 64 49 39 32 22 13 9 6 4 3 3 5 12 20 25 27 28 28 29 33 33 33 36 37 37 39 40 40 41 43 47 51 54 56 63 70 73 73 70 65 62 60 58 58 58 54 50 49 48 47 50 53 54 55 53 50 50 53 57 59 61 60 61 62 60 56 54 51 52 59 66 70 72 71 67
65 60 58 66 75 76 71 70 72 77 79 68 51 40 31 20 12 8 5 3 3 4 9 16 19 18 19 22 25 25 24 23 25 29 31 34 36 39 41 44 48 51 54 54 57 63 69 72 73 72 70 68 66 66 66 64 60 57 56 55 55 55 54 54 55 56 59 63 64 64 63 61 60 57 52 50 55 61 66 72 72 66 55 45 35
68 63 61 65 73 75 73 71 68 71 81 83 69 49 37 28 19 12 7 4 3 3 6 10 11 8 7 9 10 9 9 8 8 10 13 14 17 22 27 33 40 46 51 53 54 57 62 65 69 74 76 76 75 76 75 74 71 69 67 65 63 63 63 64 66 67 67 66 63 61 59 58 58 60 63 68 72 70 65 56 44 31 20 13 8
69 66 65 67 73 75 73 73 74 73 77 85 79 58 42 36 30 19 11 6 3 3 5 6 6 5 4 6 6 5 5 5 5 5 6 5 5 6 8 14 24 35 44 47 49 52 55 57 61 68 73 76 78 78 77 77 76 74 72 71 70 69 68 68 67 66 64 62 60 61 64 68 72 74 71 62 51 38 28 19 11 7 5 4 3
71 69 65 65 72 76 73 73 78 81 81 84 80 61 43 40 38 30 19 11 5 3 4 4 4 5 5 5 6 6 6 6 6 6 6 6 6 5 4 6 12 22 31 37 44 53 58 60 65 69 71 73 76 75 73 74 73 71 70 68 66 65 64 63 62 62 64 66 68 69 69 66 61 51 36 22 13 8 6 4 4 4 4 3 3
73 74 72 69 69 71 72 74 80 83 83 85 83 68 49 40 40 37 30 19 9 4 4 4 4 4 5 6 6 6 6 6 7 7 6 6 6 6 6 5 5 10 17 22 34 50 59 63 72 80 82 82 80 73 68 68 66 64 63 62 61 62 63 64 65 65 63 58 51 45 37 28 21 14 8 5 4 4 4 4 3 3 4 3 3
72 74 75 77 75 71 69 73 80 82 82 83 84 75 60 46 41 40 37 29 18 9 4 4 4 4 4 6 6 6 6 6 6 7 6 7 6 5 6 7 5 6 9 11 18 31 40 47 62 76 81 81 76 68 65 67 65 63 62 61 60 60 58 55 52 45 35 24 17 12 9 6 5 4 4 4 4 3 3 4 4 3 4 3 3
71 71 73 78 80 77 73 75 80 81 80 81 83 80 71 58 47 42 42 38 30 20 9 4 4 4 4 5 6 6 6 6 7 7 6 7 7 6 5 6 6 6 7 7 10 15 18 25 38 48 50 50 50 49 50 51 50 47 45 42 38 34 30 26 22 15 9 6 5 4 4 4 4 4 4 4 4 4 4 4 3 4 4 3 4
68 68 73 77 80 79 78 80 82 82 82 84 84 81 77 69 58 50 47 44 39 32 22 11 5 3 4 5 5 5 6 6 6 7 6 7 9 8 7 7 7 7 7 7 8 9 9 11 16 20 19 20 21 22 23 23 22 20 19 16 14 12 10 9 7 5 5 5 4 4 4 4 4 4 4 4 4 3 4 4 5 6 8 10 13
64 64 67 72 77 80 80 79 80 81 83 86 86 83 82 79 73 64 57 50 46 43 37 27 15 6 4 5 5 5 7 7 7 7 8 7 8 9 9 9 8 7 8 8 8 9 8 7 8 8 8 9 9 9 9 9 9 9 8 7 7 7 6 5 5 5 5 4 4 5 5 4 4 4 4 4 5 6 8 12 16 19 23 26 29
58 60 62 65 69 73 74 75 78 83 86 88 89 90 92 90 85 79 72 62 55 49 45 40 30 16 5 4 5 5 6 7 8 8 9 9 9 9 10 11 11 10 9 8 8 9 9 9 9 9 8 8 8 8 8 8 8 8 8 7 6 6 5 5 5 5 5 5 5 5 4 4 5 6 6 9 15 20 23 26 30 32 33 33 33
54 54 54 57 61 65 68 70 75 82 88 91 93 97 99 97 93 91 87 78 67 57 50 45 40 28 15 7 5 5 5 6 8 10 10 10 10 9 9 10 12 12 12 11 9 8 8 8 9 9 9 9 9 8 8 8 8 7 6 6 6 5 5 5 5 5 5 5 5 6 7 8 10 13 17 23 29 34 35 34 32 30 28 26 25
49 48 46 50 61 71 75 74 72 73 80 89 95 98 99 100 100 100 98 90 79 67 56 49 45 39 29 17 9 5 5 6 8 10 12 11 11 11 10 11 11 12 14 15 13 11 10 9 8 8 8 8 9 9 8 8 7 7 6 6 6 6 5 6 6 6 6 7 9 11 14 19 25 31 35 37 38 37 33 30 26 24 23 23 22
36 40 42 49 59 66 69 69 69 69 74 83 91 94 95 97 99 101 100 94 84 72 63 56 50 45 40 32 21 10 6 6 7 9 11 12 12 12 11 11 11 12 14 15 15 16 16 14 12 11 10 8 7 7 7 7 7 6 5 5 6 6 6 6 7 8 10 14 18 23 29 34 38 40 39 36 33 30 27 24 23 23 23 23 24
30 36 43 48 50 49 49 53 58 61 65 74 84 88 90 93 98 101 100 93 83 74 68 64 58 49 44 41 34 21 10 6 6 7 9 10 11 12 12 13 12 13 14 14 15 17 20 20 19 18 16 14 12 9 7 7 7 6 6 7 7 7 8 9 11 15 20 26 31 37 41 43 42 42 40 38 34 32 30 29 29 29 29 29 30
34 37 42 46 46 45 46 51 56 56 58 63 70 76 84 92 96 97 94 89 82 75 71 70 68 59 49 44 42 34 22 12 8 6 6 8 9 10 11 12 12 13 14 13 13 16 20 21 21 21 21 21 19 16 12 9 7 7 7 7 8 11 14 16 20 26 34 41 45 46 48 49 50 50 50 50 49 49 49 49 48 48 48 49 49
37 37 37 39 40 41 44 48 51 51 52 53 54 61 76 90 94 90 88 88 87 83 78 76 75 72 64 55 48 43 35 24 16 10 7 7 7 7 8 11 13 13 14 13 11 14 18 20 21 23 26 27 25 22 18 14 10 10 10 11 16 22 24 25 31 43 49 51 53 55 57 59 61 61 62 62 61 60 59 59 58 59 60 61 62
41 42 41 39 38 41 47 50 51 53 55 55 53 54 64 78 88 90 92 94 96 94 91 89 87 86 82 73 61 52 44 34 25 18 11 8 7 6 7 8 8 10 13 14 11 12 17 22 24 25 29 34 34 31 29 25 19 16 17 16 19 29 37 37 42 53 59 58 59 63 65 65 67 68 70 72 73 71 69 66 63 62 62 62 64
48 50 49 43 38 40 46 51 53 55 56 58 59 59 59 68 80 88 90 95 99 99 99 99 97 93 89 81 73 65 53 40 31 25 18 13 10 8 6 7 9 11 15 20 23 25 28 34 39 41 45 54 59 57 56 53 44 37 38 35 29 34 48 56 55 57 61 63 65 68 69 70 71 71 72 73 74 76 76 74 69 65 63 65 68
48 49 46 41 36 37 42 49 54 58 57 56 58 57 55 61 73 77 78 86 96 99 99 101 100 95 91 87 81 75 64 50 38 30 23 17 13 9 8 10 13 19 31 46 57 59 53 51 58 67 75 82 85 82 81 79 70 62 65 66 57 50 56 63 64 61 60 62 66 68 69 70 73 78 82 83 82 79 77 77 75 71 68 68 71
46 45 41 38 38 41 46 52 60 67 68 66 63 57 50 51 59 62 64 73 86 92 96 100 100 98 98 96 90 81 71 59 45 35 29 24 18 13 11 11 13 27 51 70 78 76 70 66 69 77 84 89 91 91 91 90 84 76 74 77 78 75 69 66 66 68 67 66 68 71 72 72 74 80 88 94 95 90 83 80 79 78 76 77 79
46 44 41 41 43 46 51 57 64 71 75 78 79 74 62 55 57 61 67 77 87 91 94 99 100 100 101 101 98 92 81 64 47 37 33 30 24 19 15 12 12 23 46 65 70 70 72 72 71 73 80 87 91 93 93 91 89 86 81 79 83 87 81 74 75 81 82 79 77 79 80 82 84 87 92 98 100 98 92 87 83 80 79 82 86
44 43 43 43 46 50 57 62 66 69 72 76 80 81 73 65 61 61 65 73 82 87 91 96 100 101 100 100 101 100 90 70 50 38 32 31 30 27 24 20 14 11 24 52 76 84 81 76 71 72 79 85 87 90 95 95 94 95 95 92 91 91 89 87 90 93 93 91 90 89 89 90 92 95 98 99 97 95 94 92 87 82 81 87 93
42 43 43 44 47 53 59 64 67 71 73 73 75 77 75 70 65 63 65 72 80 86 91 96 99 101 101 100 100 101 94 78 61 46 33 26 27 28 27 28 24 14 12 33 64 82 81 72 65 67 76 83 85 88 93 96 95 96 99 99 97 95 96 98 99 98 97 98 99 98 98 98 99 99 100 99 95 91 91 92 92 91 93 96 98
43 42 43 47 51 54 59 63 67 72 77 78 77 77 75 71 68 72 79 83 83 82 87 94 98 100 101 100 100 101 97 86 74 62 45 30 28 32 31 28 28 25 19 20 35 55 65 60 55 62 78 88 88 86 89 92 94 96 95 95 96 98 100 101 101 100 100 101 100 100 100 101 100 100 101 100 96 93 93 95 98 99 99 99 100
Wind_Speed
19 20 21 22 25 25 24 22 21 19 17 14 13 14 14 13 14 15 17 18 19 19 20 20 20 20 20 20 20 20 20 21 21 21 21 21 21 21 22 21 20 19 17 16 16 18 20 21 21 22 23 22 23 23 23 22 22 22 22 22 24 26 27 27 25 22 22 23 23 23 24 23 23 21 18 18 18 18 19 20 20 20 20 19 18
19 20 20 22 25 25 24 23 22 21 18 15 14 14 15 14 14 15 16 18 19 20 21 21 21 21 21 21 20 21 21 21 22 22 22 22 21 21 22 22 20 19 17 16 15 16 18 20 21 22 23 23 22 22 22 21 20 20 22 23 24 26 27 28 28 25 25 25 25 25 25 26 26 23 19 18 18 18 19 20 21 22 22 21 19
20 21 21 24 27 27 25 24 22 21 19 16 14 14 14 14 14 15 16 17 19 20 21 21 21 21 21 21 21 21 21 21 22 23 23 22 21 21 22 22 19 18 17 16 14 15 16 17 19 20 21 22 20 19 20 20 20 20 22 23 23 26 27 28 29 28 27 27 27 27 27 28 29 26 21 19 19 19 19 20 22 24 24 23 19
20 22 23 26 28 28 27 25 23 21 20 17 15 14 14 14 15 16 17 18 18 19 19 20 20 20 20 21 21 21 21 21 22 23 23 22 20 20 20 20 18 17 17 16 16 16 16 17 18 17 18 18 18 18 19 19 19 21 22 21 21 24 26 27 28 28 28 29 28 27 27 28 29 28 22 19 20 20 19 19 22 24 25 23 21
20 23 25 27 28 29 28 27 24 22 21 18 16 14 13 14 15 16 17 17 18 18 18 18 18 18 19 19 20 20 20 20 21 21 21 20 19 19 19 19 18 16 16 17 17 16 15 16 17 16 16 16 16 17 18 18 19 19 20 19 20 22 24 26 26 26 27 28 27 27 27 27 29 30 25 22 22 22 21 20 22 23 24 24 25
21 24 26 27 28 29 28 27 25 22 20 19 17 14 13 13 14 15 16 16 17 17 17 16 16 17 17 17 18 18 18 19 20 20 20 19 19 18 18 18 17 16 16 16 18 17 16 14 14 14 15 14 13 13 14 16 17 15 15 15 16 18 20 22 24 24 24 24 25 26 27 28 29 30 28 27 27 26 25 24 23 23 24 26 27
21 23 25 27 28 28 27 26 24 21 19 19 18 14 13 13 13 14 15 15 16 16 15 15 15 15 16 16 16 16 17 17 18 18 18 19 18 17 18 17 15 16 17 17 18 19 16 14 13 13 13 12 11 11 12 14 14 13 12 13 13 14 16 19 21 22 22 23 25 26 28 29 30 31 30 30 31 29 27 26 26 25 25 26 27
21 23 25 26 27 27 27 26 25 22 20 20 19 15 13 13 13 13 14 15 15 15 14 14 14 15 15 15 14 15 15 16 17 17 17 17 17 17 17 16 15 16 17 17 17 17 15 15 15 13 11 11 11 11 11 12 11 10 10 11 11 12 14 16 18 20 21 22 24 25 27 27 28 30 31 31 30 31 30 28 26 26 26 27 27
20 22 23 24 25 27 27 26 26 26 24 22 19 16 14 13 13 13 14 14 14 14 13 14 14 14 14 14 14 14 14 15 16 16 16 16 16 16 17 16 16 17 17 16 16 15 14 15 15 12 10 11 11 11 11 12 10 10 10 10 11 12 12 14 16 17 19 20 21 22 24 25 26 28 30 29 29 31 31 30 29 28 27 26 26
19 20 21 22 23 24 26 26 26 26 25 23 20 16 14 13 13 13 13 14 14 13 13 13 14 14 13 13 14 13 14 15 15 15 15 15 15 15 16 18 18 18 17 16 15 15 14 14 14 12 10 11 12 11 11 12 11 11 12 12 12 12 12 13 13 15 16 17 18 19 21 22 24 27 29 29 29 30 30 30 30 30 29 27 26
20 20 21 22 22 23 24 25 25 25 25 24 21 17 15 13 13 14 13 14 14 13 13 13 13 14 13 13 13 13 14 14 15 15 15 14 14 14 14 16 18 19 18 17 16 16 15 13 12 12 11 11 11 12 12 13 13 13 13 13 14 14 14 13 13 15 16 16 17 17 18 20 23 26 27 28 27 27 27 28 28 29 30 29 27
19 21 21 22 23 23 23 23 23 24 24 23 21 18 15 14 14 15 14 14 14 13 13 13 13 14 14 13 13 13 13 14 14 14 14 13 13 13 12 13 16 18 19 18 18 18 17 15 13 11 10 10 10 11 12 13 13 14 14 14 13 13 14 15 15 16 16 17 17 17 18 19 21 23 24 26 26 25 25 26 26 26 26 28 28
18 19 20 21 21 22 23 22 22 23 23 22 20 18 16 15 15 16 15 15 15 14 14 14 14 14 14 13 13 13 13 13 13 14 13 12 12 12 11 11 12 15 17 19 19 20 19 18 16 12 10 10 9 10 11 12 13 14 14 13 13 14 16 17 17 17 17 18 18 18 18 20 20 20 20 22 24 24 24 24 25 25 25 26 27
18 19 20 20 20 21 22 21 21 21 21 21 20 18 17 16 16 16 16 16 15 15 15 15 15 15 14 14 13 12 12 12 13 13 13 12 11 11 11 10 10 11 14 16 19 20 19 19 18 15 12 11 9 9 9 10 11 13 12 11 12 13 14 14 14 14 15 17 18 18 18 19 20 21 20 19 20 22 23 23 23 23 24 24 25
17 19 20 20 20 20 21 20 19 20 20 20 19 18 18 17 17 16 17 16 16 16 16 16 16 16 16 15 14 13 12 12 12 12 12 12 11 11 11 10 9 10 11 14 17 19 19 18 19 18 16 14 11 9 9 10 10 10 9 9 10 10 9 10 10 10 11 13 16 18 18 18 20 21 21 19 18 17 17 18 21 22 22 22 23
17 18 19 20 20 20 20 20 19 19 19 20 19 19 18 18 17 17 17 16 16 16 17 17 17 17 17 16 15 14 12 12 12 12 11 11 11 11 11 10 9 9 10 11 13 15 17 18 19 19 18 16 13 10 10 11 11 9 9 9 9 8 7 8 8 9 10 10 12 15 17 18 19 20 20 19 18 17 14 11 13 17 19 20 20
17 18 18 20 20 20 20 20 19 19 19 19 20 20 19 19 18 18 17 16 16 16 17 18 18 18 18 17 16 15 13 11 12 12 12 11 11 12 11 11 10 8 8 9 10 12 15 16 17 18 18 17 15 13 12 13 12 10 10 10 9 8 7 6 7 8 9 9 9 11 13 15 16 17 19 19 19 20 18 12 9 11 13 15 17
17 18 18 19 20 20 20 20 19 19 18 19 19 20 20 19 19 19 18 17 17 16 17 18 18 18 18 17 17 16 14 12 11 12 12 12 12 12 12 11 10 9 8 8 9 10 12 14 15 16 17 18 17 16 15 14 13 12 12 10 9 7 6 6 5 6 7 7 7 7 9 11 12 13 15 16 17 19 21 19 17 16 16 16 17
17 18 18 18 19 20 20 20 20 19 19 19 19 19 19 19 18 18 18 18 17 16 16 18 18 18 18 17 16 16 15 13 12 12 12 12 12 12 13 12 12 11 10 9 9 9 10 11 13 15 16 17 18 18 17 16 15 14 13 11 9 8 7 7 6 5 6 7 6 4 4 6 8 9 9 11 13 15 17 18 18 18 18 18 18
17 17 18 19 19 19 20 20 19 19 18 18 18 18 18 18 18 18 17 18 17 16 16 17 18 18 18 17 16 15 14 13 13 13 13 12 12 12 13 13 12 11 10 10 10 9 7 9 12 14 15 16 17 19 19 18 18 17 15 13 12 11 9 8 7 6 6 6 6 4 3 4 5 6 6 8 10 13 14 16 16 17 17 18 18
17 17 18 19 20 20 20 20 20 19 19 18 18 18 18 17 17 17 18 18 17 16 15 15 16 17 18 17 16 14 14 14 13 13 13 13 12 12 13 13 12 10 10 10 10 8 6 9 11 12 13 15 16 17 17 17 17 17 16 15 15 13 11 10 9 9 7 6 7 6 4 5 6 5 6 6 8 9 11 13 14 15 16 16 17
18 17 18 19 20 20 21 22 21 20 19 18 18 17 17 17 16 16 17 18 18 17 16 15 15 15 16 17 16 13 12 13 13 13 13 13 13 12 13 13 12 11 10 10 8 6 7 10 10 11 12 13 14 15 14 13 13 14 14 15 16 16 14 13 11 11 10 8 7 6 5 5 5 5 5 5 4 5 5 6 7 9 10 11 12
18 18 18 18 19 20 21 22 22 21 21 19 18 17 17 16 16 16 17 17 18 17 16 15 15 15 14 15 15 12 10 12 13 13 13 13 13 12 12 12 12 11 10 9 7 6 7 9 10 11 11 12 13 14 13 12 12 13 14 15 17 18 16 15 13 12 11 10 9 7 6 5 5 4 4 4 4 3 3 3 4 4 4 4 4
18 17 17 18 19 20 21 21 22 22 21 20 18 17 17 16 15 15 16 17 17 18 17 15 14 14 14 14 13 11 9 10 12 12 13 13 13 12 12 12 11 11 9 8 6 6 7 8 9 10 11 12 12 12 12 12 13 14 15 16 17 18 17 16 15 14 14 13 12 10 8 7 6 5 5 5 4 4 4 4 4 4 4 3 3
19 17 16 18 18 19 20 21 22 22 21 21 20 18 17 16 16 15 16 16 16 17 17 16 14 14 14 12 10 8 8 9 10 11 12 12 12 12 11 11 11 10 9 7 6 6 6 7 8 9 10 11 11 11 11 11 12 13 14 16 18 17 16 16 16 16 16 15 14 13 12 11 8 7 6 6 6 5 5 5 4 4 4 4 5
21 18 16 18 19 19 20 20 21 22 21 21 21 20 18 17 16 16 16 16 16 16 16 16 14 14 13 10 6 5 7 8 9 10 11 12 12 12 11 11 11 10 8 7 6 6 6 6 7 8 9 10 10 10 10 10 11 11 12 14 15 16 16 16 16 17 16 15 13 13 13 13 11 9 8 8 7 7 6 6 5 6 5 5 6
22 19 18 18 19 20 20 20 20 22 22 21 20 20 19 18 17 16 15 15 15 15 15 15 14 13 11 7 5 5 6 7 8 9 10 10 11 11 11 11 11 10 8 7 6 6 5 6 6 7 7 9 9 10 10 10 11 11 11 12 13 14 15 15 15 15 14 13 11 11 12 12 11 10 8 8 8 7 7 6 6 6 6 5 5
22 21 20 20 20 20 21 21 19 20 22 22 21 20 20 19 18 16 14 14 14 14 14 13 12 10 7 5 4 5 4 4 5 6 7 8 8 9 10 10 10 10 9 8 7 6 6 6 5 5 5 7 8 9 9 10 10 11 11 12 13 13 14 13 13 13 12 11 10 10 10 11 11 10 9 8 8 8 8 7 6 5 5 6 5
23 22 21 20 21 20 21 21 20 19 20 22 22 20 18 19 19 17 14 13 13 14 13 12 10 8 5 3 3 3 2 2 3 2 3 4 4 5 7 8 8 9 9 8 8 7 7 6 5 5 5 6 6 7 8 9 10 10 11 11 12 12 11 11 11 10 10 10 10 10 10 10 10 9 9 9 8 8 7 7 7 6 6 6 6
23 23 21 20 21 21 21 21 22 23 23 22 21 20 17 17 18 18 16 14 13 12 12 11 9 7 5 4 4 3 3 2 2 2 2 2 2 3 3 4 6 7 7 7 7 7 7 7 6 6 7 7 7 8 8 8 9 10 10 10 10 10 10 10 10 10 10 10 10 10 10 10 9 9 9 8 8 8 8 8 7 7 6 5 5
21 22 21 20 20 21 21 21 22 24 25 22 20 19 17 16 17 17 17 15 13 12 12 12 10 8 7 7 6 5 4 3 3 3 2 2 2 2 2 2 3 4 5 6 6 5 6 7 7 7 8 8 8 9 9 10 10 10 10 10 10 10 10 10 10 10 10 10 10 10 10 9 9 9 9 9 9 9 8 8 7 6 5 4 4
19 20 21 21 21 21 21 20 21 23 24 22 20 19 19 17 16 16 16 16 14 12 12 12 12 11 9 8 8 7 5 4 4 4 3 2 2 2 1 1 2 2 3 3 4 4 6 7 7 7 7 7 8 9 10 11 11 10 10 10 10 10 10 10 10 10 10 9 9 9 10 10 10 10 10 10 9 9 8 7 6 5 5 6 7
17 19 20 21 22 22 20 19 20 22 23 24 23 22 20 19 18 16 15 15 15 14 12 12 13 13 12 10 9 9 7 6 5 4 4 4 3 3 3 3 3 3 3 2 2 2 4 5 6 6 7 7 7 8 9 10 10 10 10 9 9 9 9 9 9 9 9 10 10 11 11 11 11 10 10 9 8 7 7 6 7 8 8 10 11
17 18 18 20 22 23 21 20 21 23 24 25 26 26 23 20 19 18 17 15 15 15 14 13 14 14 14 13 12 11 10 8 6 5 5 4 4 4 3 4 4 4 3 3 2 2 4 4 5 5 6 6 7 7 8 8 8 9 8 9 9 9 9 10 10 11 11 11 11 11 11 10 9 8 8 7 7 8 8 9 10 11 12 13 14
17 17 18 19 21 23 23 22 22 24 24 25 26 28 25 21 19 19 18 17 16 15 15 15 15 15 16 16 15 13 11 10 9 8 6 5 5 5 4 5 4 4 5 5 5 4 5 5 5 6 6 6 6 7 7 7 8 9 9 10 11 11 11 12 12 12 12 11 10 10 9 9 8 8 8 9 10 11 11 12 13 13 14 14 14
16 17 18 19 20 22 23 23 23 23 24 25 26 27 25 22 20 20 20 19 18 17 16 16 16 16 16 16 16 15 14 12 11 10 8 7 7 6 6 6 6 6 6 7 7 6 6 6 6 6 6 7 7 7 8 8 9 10 11 11 12 12 12 12 12 11 10 10 10 10 10 10 10 11 11 11 12 13 13 13 13 14 14 14 14
16 17 19 19 20 21 22 22 22 22 24 26 27 26 26 25 23 21 21 21 21 21 20 18 16 16 16 16 17 17 16 15 13 11 10 9 9 8 8 7 8 8 8 9 9 8 8 8 8 8 8 9 9 9 9 10 10 11 12 12 12 12 12 11 11 11 11 11 11 12 12 12 12 13 13 12 12 12 13 13 13 13 13 13 12
18 18 19 20 20 21 22 22 21 20 22 25 27 27 28 28 26 23 22 21 21 22 22 21 18 16 16 16 18 18 18 17 15 13 12 11 11 10 10 10 10 10 10 10 10 10 10 10 10 10 10 11 10 11 12 12 12 13 13 13 12 12 12 12 12 13 13 13 13 13 13 13 13 13 13 13 12 12 12 12 12 11 11 10 9
19 19 20 20 20 19 20 22 23 22 22 23 26 27 27 26 25 25 24 22 21 21 23 23 21 18 16 17 18 19 19 18 17 16 15 14 13 13 12 11 12 12 11 12 11 11 11 12 12 12 12 12 12 13 13 13 14 15 14 13 13 14 14 14 14 14 14 14 13 13 13 13 13 13 13 12 12 11 11 10 9 8 8 8 8
20 20 20 21 21 20 19 20 23 24 24 23 24 27 25 22 22 22 23 22 21 20 21 22 23 21 19 18 17 18 19 19 18 18 18 17 16 15 14 13 13 13 14 14 13 12 13 14 14 14 14 14 14 15 14 15 16 17 15 15 16 16 16 16 16 15 15 14 14 13 13 12 11 11 10 9 9 9 8 8 8 8 8 9 9
22 21 20 21 22 23 21 20 21 23 24 23 24 25 24 22 21 21 22 22 21 20 21 21 21 22 22 20 17 17 19 20 20 20 20 20 19 18 16 15 15 15 15 16 15 14 15 16 16 15 15 16 16 16 16 17 19 19 18 17 18 18 17 17 17 16 15 14 13 12 11 10 9 8 7 7 7 7 7 8 9 10 10 11 12
22 22 22 22 23 23 23 22 20 21 22 23 23 24 23 21 21 22 22 22 20 20 21 21 21 21 23 23 21 18 18 19 21 22 22 21 21 20 19 17 17 17 18 18 17 16 17 19 18 17 17 18 18 18 19 19 20 21 20 19 19 18 18 18 17 16 14 12 11 10 9 7 7 6 6 6 7 7 7 9 10 11 12 13 14
22 22 23 22 23 23 24 23 22 22 22 23 23 23 21 20 21 22 23 23 22 21 22 22 22 22 22 23 23 23 21 20 20 22 23 23 22 22 21 20 19 19 19 20 20 19 19 21 21 20 19 19 19 20 21 22 22 22 21 20 19 19 20 19 17 15 12 10 9 9 8 7 6 6 6 7 7 8 9 10 11 12 13 14 14
23 23 23 22 22 22 23 24 24 23 22 22 23 22 21 21 22 23 23 24 25 25 24 24 24 24 24 24 23 24 24 23 21 22 23 23 23 23 23 21 21 21 21 22 23 22 21 22 23 22 21 20 21 22 23 24 24 23 23 23 21 20 21 20 17 14 12 11 11 10 10 10 10 10 9 9 9 10 11 12 13 13 14 15 16
23 22 23 23 22 22 23 24 25 24 23 22 21 21 22 22 23 24 24 24 25 26 27 27 27 26 25 24 23 23 24 25 23 22 22 23 23 24 24 23 22 20 20 21 22 21 19 19 20 21 20 19 20 21 21 22 22 21 21 22 22 20 20 20 17 14 13 13 12 12 12 12 12 13 13 13 13 13 14 16 17 18 18 18 19
23 23 23 24 24 23 23 23 24 25 25 24 23 22 22 23 23 24 24 25 25 25 26 29 29 26 25 24 24 22 23 24 24 23 22 22 23 24 24 24 22 20 17 16 17 17 17 15 16 18 19 19 20 20 19 19 20 20 19 19 20 19 19 18 16 14 13 13 13 13 13 13 13 13 15 17 18 18 18 20 22 22 22 23 25
24 24 25 24 24 24 23 23 23 25 26 26 25 24 24 24 24 24 24 24 25 25 26 27 28 28 28 27 25 23 23 24 25 24 22 22 22 23 25 25 24 21 18 16 17 18 19 19 17 18 19 20 20 20 19 18 19 19 19 19 19 18 17 16 14 14 14 14 13 13 14 15 15 15 17 19 21 22 22 23 25 25 26 27 29
25 26 26 25 24 23 23 23 24 24 25 26 26 25 24 24 24 24 24 24 25 27 26 26 27 28 29 29 27 25 24 24 25 25 24 22 21 21 23 26 26 24 23 22 21 21 21 21 20 18 19 20 20 20 19 18 17 17 18 19 19 18 16 14 13 14 16 16 15 15 16 17 18 19 20 22 24 26 26 27 27 29 30 31 32
27 27 27 26 25 24 23 23 24 25 25 25 25 24 24 24 24 24 24 24 25 27 27 27 28 28 28 27 27 26 25 24 25 25 25 24 23 22 22 24 26 27 26 25 24 24 24 23 21 19 19 20 21 21 21 20 18 17 17 18 18 16 15 14 15 16 18 19 19 19 20 21 22 23 23 25 27 29 29 30 31 33 34 35 35
28 28 27 27 26 25 24 24 25 25 25 25 23 22 24 26 26 24 23 24 25 25 26 27 29 30 29 29 28 26 25 25 26 26 26 25 25 23 21 20 22 25 26 27 28 29 28 26 23 21 20 20 21 22 22 22 21 21 21 20 18 16 15 16 18 19 20 21 21 23 24 25 26 27 28 28 30 31 32 34 35 36 37 38 38
29 29 29 27 27 26 26 25 25 25 25 24 23 22 24 26 26 25 25 26 26 26 26 27 28 30 32 32 30 27 26 26 26 27 27 26 26 26 25 23 21 22 23 26 29 31 31 28 25 23 22 21 22 23 23 23 23 24 24 22 19 18 18 20 21 22 24 24 25 26 27 28 30 31 32 32 33 35 36 38 38 38 40 41 42
Wind_Direction
320 320 320 320 322 323 323 322 322 323 324 322 319 317 315 315 315 315 315 314 313 310 305 301 296 291 288 287 286 285 283 282 281 280 277 274 271 269 266 260 251 247 247 246 253 258 254 254 256 255 255 257 259 258 256 256 256 257 260 260 254 249 245 243 243 242 242 242 242 244 244 245 243 240 245 251 247 242 242 243 246 243 235 227 221
318 317 314 316 321 324 324 323 322 322 324 323 320 317 316 318 319 319 318 315 313 309 306 304 300 296 290 285 283 284 283 283 282 280 277 274 271 267 265 261 250 241 240 241 251 260 258 257 259 258 257 258 260 261 259 258 258 258 261 262 256 248 243 243 244 242 241 242 244 245 244 245 247 244 243 248 248 243 241 241 242 241 239 231 221
316 315 314 319 324 325 324 322 321 322 324 322 318 315 315 319 322 320 318 314 310 308 307 304 300 296 291 287 284 284 284 283 282 280 277 275 272 267 263 263 256 242 235 237 250 262 262 261 262 259 257 256 258 261 258 256 257 259 260 259 253 246 242 242 243 242 243 243 244 247 247 245 245 242 238 239 244 245 241 238 237 238 239 236 227
316 314 315 320 323 323 322 322 322 323 325 321 315 314 316 322 325 322 319 315 312 311 308 304 300 296 292 288 286 284 282 281 280 279 278 276 274 268 262 262 258 243 233 236 249 261 263 264 266 263 258 255 255 255 255 255 255 257 260 259 255 250 246 246 247 247 245 244 244 247 247 245 242 240 238 237 241 245 241 234 233 236 239 238 231
315 312 313 318 320 321 322 323 323 324 324 318 313 314 317 322 325 322 321 318 315 313 309 306 302 297 292 289 286 284 282 282 280 278 279 277 274 268 260 257 254 240 230 238 248 257 264 265 266 267 262 257 256 255 254 256 256 257 260 260 257 253 248 249 251 250 247 245 245 244 244 245 244 243 244 241 240 245 247 239 234 237 239 239 237
313 310 312 316 318 320 322 322 320 321 323 317 312 313 316 320 322 321 321 318 315 313 311 307 301 296 293 290 288 288 287 285 283 280 279 276 272 266 259 255 250 237 231 238 246 254 264 269 268 270 267 262 261 259 256 255 255 257 261 260 257 250 245 247 250 250 247 246 245 244 245 248 248 247 247 245 241 242 247 246 240 237 237 239 242
311 309 312 316 317 320 323 322 320 322 325 319 312 311 313 318 320 319 319 316 314 314 312 307 302 298 296 293 292 293 292 289 286 283 279 275 272 268 259 250 241 234 234 240 247 252 262 270 269 267 267 265 261 259 257 256 256 255 254 252 251 244 239 242 247 250 249 247 247 248 250 250 249 247 246 245 242 239 240 244 243 239 236 237 242
311 311 314 316 318 321 323 323 323 326 328 322 314 310 310 314 317 317 315 314 314 314 310 308 306 303 301 298 299 300 298 295 291 287 283 277 272 266 258 245 233 232 236 241 247 252 258 263 262 258 258 257 254 251 253 254 250 242 235 234 236 236 236 241 247 249 248 247 247 249 251 250 247 247 247 247 246 240 237 240 243 243 239 236 238
315 315 316 317 319 321 322 324 325 325 324 321 316 309 305 308 313 313 312 312 313 312 309 309 309 308 306 305 308 308 305 300 296 292 288 283 275 266 255 241 230 231 237 241 246 251 255 258 261 260 255 252 249 245 245 246 239 226 219 222 229 235 239 243 248 250 249 248 248 249 250 247 245 248 250 250 248 243 238 237 240 243 244 240 238
319 318 318 318 320 321 320 321 322 321 320 319 317 309 302 304 309 308 308 307 307 308 309 309 310 310 310 311 314 315 312 306 302 297 293 287 282 272 258 243 232 230 235 240 242 246 251 257 263 263 255 248 249 246 243 242 237 229 225 227 232 237 242 246 251 255 254 252 252 251 251 249 246 248 251 251 250 246 241 239 240 242 244 243 240
321 322 323 322 321 320 318 318 319 319 318 319 317 310 304 304 305 304 304 302 301 302 304 305 306 308 310 313 315 317 317 314 310 304 299 293 287 280 267 251 238 231 233 237 238 242 248 254 260 263 259 252 250 247 244 242 239 237 236 235 235 238 243 248 252 255 255 254 254 254 255 254 250 250 251 252 252 250 245 242 241 242 245 244 241
322 323 323 322 321 319 318 318 318 317 318 318 317 312 307 304 303 301 301 300 297 296 297 299 302 305 308 311 314 317 320 320 316 311 306 301 294 287 278 262 246 235 232 235 238 239 244 249 253 259 263 259 252 247 244 241 240 241 242 241 243 245 249 252 252 254 256 256 256 256 255 252 251 252 251 249 251 251 246 243 244 244 246 246 243
320 321 322 322 321 319 318 319 319 318 319 319 318 315 311 306 303 299 297 297 297 295 294 295 298 301 304 307 309 313 317 319 319 317 314 309 302 295 286 272 255 241 233 234 238 239 240 244 247 250 255 255 252 249 247 243 241 244 247 250 254 253 254 256 256 257 258 257 257 258 255 251 248 249 249 247 248 249 245 242 242 244 247 249 246
321 322 324 324 322 320 318 320 319 319 320 319 319 318 314 311 307 300 295 294 295 295 292 290 292 296 299 302 301 305 311 315 316 319 319 316 310 301 292 281 267 251 237 234 237 239 239 240 242 243 245 247 248 246 244 240 240 243 245 247 249 251 255 259 261 261 261 259 257 256 255 253 248 246 248 250 252 254 255 253 249 245 246 249 249
322 323 324 324 324 322 319 318 319 320 320 320 320 319 316 315 312 305 300 297 293 291 288 285 285 288 292 295 295 298 304 308 309 313 317 319 315 305 294 286 275 260 245 237 237 239 238 237 238 239 239 242 245 240 234 230 231 235 234 233 240 247 254 262 269 274 275 270 263 256 254 253 249 246 246 249 253 253 250 246 245 246 247 247 247
321 322 322 323 324 323 321 320 321 322 322 321 321 320 318 316 313 309 307 303 295 288 284 281 279 281 285 289 290 292 297 301 302 304 309 314 315 309 299 292 284 268 254 248 244 242 241 238 236 236 237 239 237 228 225 228 229 230 230 232 240 247 255 268 284 292 293 290 276 264 258 255 251 246 243 243 244 238 226 214 221 236 243 244 243
322 322 322 322 324 324 323 323 322 322 323 323 323 322 319 316 314 311 310 308 301 291 284 279 277 277 280 283 285 288 293 296 296 296 300 305 308 307 303 298 292 280 266 261 257 249 244 240 236 234 233 235 232 225 223 228 232 232 232 234 238 244 257 279 302 307 303 298 285 270 263 258 252 247 242 240 239 238 239 242 231 228 238 243 244
324 323 323 324 325 326 325 324 324 324 324 324 324 322 319 316 315 314 312 309 305 295 285 279 275 275 277 279 281 283 287 291 291 290 293 297 300 302 302 300 297 287 275 269 264 254 245 241 239 235 231 231 232 229 227 228 232 235 237 239 240 245 260 280 306 321 318 307 294 279 270 263 254 246 243 243 243 241 244 250 252 249 250 250 248
323 323 323 325 326 327 327 326 326 326 325 324 322 320 318 317 316 315 313 310 307 301 291 281 275 273 275 277 278 279 281 284 283 284 287 291 295 297 297 298 299 295 289 280 274 269 257 245 240 237 233 230 231 232 231 230 231 236 240 244 246 251 259 270 288 320 334 322 309 298 283 272 259 247 241 242 243 243 243 247 252 253 251 247 244
320 320 322 324 325 326 327 327 326 325 323 323 321 319 318 317 317 316 313 310 309 306 299 289 280 275 274 276 276 277 279 279 279 280 284 288 291 291 291 294 296 298 296 288 284 287 274 247 239 237 235 233 233 235 235 233 233 237 241 244 247 250 253 257 271 298 327 333 327 316 281 264 264 263 258 247 239 240 242 245 248 249 247 245 243
318 318 319 322 324 325 326 327 328 327 325 323 321 319 318 318 318 318 315 313 311 308 305 299 288 278 274 274 276 277 278 276 276 278 281 285 289 289 289 292 295 297 297 293 292 292 267 243 238 235 234 234 235 237 239 239 238 238 239 241 244 244 243 245 258 279 298 317 329 326 297 267 264 268 263 251 240 238 241 244 248 250 249 248 247
315 315 316 319 323 326 327 326 328 328 327 325 322 320 319 319 320 321 318 314 312 310 308 306 298 287 279 276 276 277 275 274 274 275 277 281 285 285 286 291 295 299 301 304 304 287 255 243 240 235 232 232 233 235 235 236 235 232 230 231 234 234 234 239 251 268 283 294 307 314 308 287 270 259 246 229 216 215 221 227 234 240 243 243 245
311 312 314 318 321 325 327 326 326 327 328 326 324 321 320 320 320 321 319 315 313 312 311 309 304 296 285 278 277 277 274 272 273 273 273 277 279 278 280 286 292 296 303 312 310 281 257 249 244 237 231 229 232 234 230 227 228 226 221 223 228 229 230 236 246 257 268 277 282 287 290 283 267 254 239 221 204 191 183 183 191 199 206 214 221
309 309 311 315 318 321 324 325 325 326 327 326 325 322 321 320 320 322 321 318 315 314 313 311 305 297 287 280 278 279 274 272 274 274 273 273 274 274 276 282 287 289 296 310 308 284 266 255 247 241 233 228 230 232 230 227 227 226 221 222 229 233 233 236 245 252 258 263 267 268 268 263 257 249 238 225 214 204 195 189 187 188 187 186 186
307 307 307 310 314 317 320 323 324 325 326 327 327 325 323 322 321 321 322 321 320 318 315 311 306 298 290 282 277 277 277 275 275 275 273 272 271 271 273 275 278 281 287 297 299 285 269 256 247 241 235 230 228 226 225 224 224 224 221 221 228 234 237 238 243 250 254 256 256 255 252 249 249 251 247 239 228 215 206 201 204 211 215 217 219
304 304 303 306 310 313 316 319 321 323 324 327 328 326 325 323 320 320 323 326 327 323 315 310 306 299 293 288 280 275 277 277 275 274 274 273 270 268 267 266 268 271 275 280 285 283 272 262 252 240 232 229 225 220 219 220 220 222 223 224 228 233 236 239 242 247 252 253 249 244 242 240 241 243 243 237 227 217 213 217 224 232 234 232 231
301 302 304 305 307 309 312 314 316 318 320 322 324 325 325 322 318 320 324 328 326 321 315 314 313 308 303 301 289 276 276 280 280 278 277 277 274 270 267 266 267 268 265 262 266 270 268 261 255 246 236 229 223 218 217 218 218 220 221 223 226 229 232 235 239 243 246 246 241 236 235 233 234 235 235 230 224 222 228 234 235 232 229 224 216
299 301 304 305 306 307 308 309 310 313 315 317 319 322 324 322 319 320 325 325 321 318 316 315 316 319 325 325 302 290 292 293 287 279 275 275 275 271 269 268 267 266 263 258 254 253 252 249 245 240 235 230 224 220 220 221 220 220 219 220 222 226 229 232 234 236 236 234 231 229 227 226 228 231 232 229 228 230 235 236 230 217 208 200 189
296 299 301 303 305 305 306 307 308 310 311 313 313 315 319 321 318 318 320 318 314 314 311 307 308 317 330 334 313 304 305 299 293 287 282 280 278 274 271 268 263 260 259 258 253 247 244 241 232 220 219 221 219 218 220 221 221 221 222 222 223 223 224 226 227 227 226 225 225 225 224 223 224 225 225 224 224 223 221 217 211 201 193 186 181
292 295 298 300 302 303 304 306 309 310 310 308 305 305 310 316 316 315 315 312 310 308 302 296 295 297 296 292 290 283 278 289 296 295 296 301 296 286 279 273 266 258 253 251 249 243 239 236 226 218 218 216 214 217 217 217 220 221 222 222 222 220 219 221 223 223 222 222 222 222 220 219 216 214 213 210 205 202 197 193 190 187 186 187 191
290 293 295 296 296 298 301 306 311 313 312 309 303 300 303 308 312 313 312 310 308 304 296 287 281 278 280 283 284 279 280 293 300 289 283 283 287 286 283 271 257 246 240 238 234 231 236 234 222 217 221 222 222 224 222 218 219 220 219 219 219 219 220 220 222 222 221 218 216 214 211 209 206 201 197 193 190 189 189 188 189 193 200 212 227
292 294 296 295 294 295 298 304 309 311 311 310 306 301 299 302 305 308 310 310 307 301 293 283 276 272 274 279 284 283 281 287 296 297 291 274 259 249 236 229 220 209 217 230 226 228 240 236 223 219 223 225 227 227 224 219 217 217 219 221 221 220 219 219 218 217 213 208 204 200 194 191 190 188 188 188 189 192 196 201 210 222 236 250 259
292 294 294 294 295 296 299 303 304 303 304 304 303 299 295 296 298 300 304 308 306 300 292 283 276 272 270 272 276 279 279 280 287 293 296 292 275 245 215 208 200 186 184 192 208 261 265 242 220 217 221 223 223 220 215 213 214 217 219 219 216 213 211 208 205 202 198 192 188 185 185 184 185 188 192 195 200 208 219 230 241 250 256 262 265
291 292 290 289 291 294 298 302 302 300 300 300 300 298 294 289 290 295 299 302 303 301 296 287 279 274 272 270 269 271 274 276 278 281 288 294 291 276 250 231 215 204 201 193 196 266 275 253 226 222 226 225 222 216 210 209 211 211 208 202 197 194 193 192 191 190 188 187 186 186 188 191 195 201 208 215 226 236 243 249 253 257 261 264 266
292 292 291 289 288 289 294 299 298 297 298 298 300 302 300 292 288 291 294 295 297 298 297 292 284 276 272 270 270 270 270 272 273 276 280 284 287 286 278 263 243 225 219 218 222 238 248 244 236 234 230 226 222 217 210 204 201 197 193 191 189 189 189 190 192 191 189 190 193 197 202 209 217 226 233 239 246 251 254 258 262 264 267 270 273
298 297 296 295 292 290 292 296 297 297 297 296 297 302 302 297 291 291 292 292 292 291 291 291 288 281 275 271 270 270 268 267 269 272 274 276 279 281 282 278 267 252 242 236 235 236 237 236 239 239 232 227 225 219 211 206 203 199 196 194 194 194 195 196 196 197 199 204 210 215 222 228 234 240 244 248 254 259 263 266 270 273 275 277 279
304 302 300 298 295 292 293 296 297 297 296 296 297 298 294 289 288 289 289 290 291 289 287 287 287 284 279 273 268 266 265 264 264 266 269 272 274 275 276 275 272 270 265 254 243 238 236 236 238 240 238 235 231 226 220 216 212 209 207 205 203 203 205 207 209 213 217 222 226 231 236 241 245 249 253 255 259 263 267 270 271 273 275 277 278
303 302 302 301 300 297 297 297 296 294 293 294 296 296 291 287 287 288 286 285 287 288 286 285 283 281 278 273 267 264 262 262 262 262 263 264 265 266 268 269 268 269 269 263 253 244 239 238 238 239 240 240 237 232 228 224 221 219 218 215 214 217 220 222 225 229 232 235 239 243 246 250 254 256 258 259 258 258 262 265 268 270 271 272 273
301 302 303 303 300 297 294 295 296 295 295 296 295 294 291 287 286 285 281 279 280 283 285 284 283 280 277 274 271 268 264 261 260 259 259 259 259 260 262 263 264 265 264 264 261 254 247 244 243 241 241 242 241 239 236 232 229 229 227 225 226 230 232 234 236 239 241 244 247 249 251 253 255 257 258 260 259 258 257 257 258 258 259 261 265
302 302 301 299 297 293 290 291 293 295 297 296 292 291 291 286 280 279 278 275 275 279 281 282 283 283 280 276 274 272 268 262 257 255 255 256 257 257 258 259 261 261 261 261 261 259 255 253 251 248 247 246 245 244 243 239 239 239 236 234 236 237 239 241 243 244 245 246 248 249 251 252 253 254 257 258 261 264 265 263 264 264 264 268 273
302 301 298 296 295 295 293 291 289 291 294 294 291 291 291 283 275 275 277 275 274 277 279 279 281 283 282 280 276 272 269 265 261 257 254 254 255 256 256 257 258 259 260 260 259 258 258 259 258 257 255 253 250 249 246 243 243 244 242 239 241 243 243 244 244 244 244 246 248 248 250 252 252 255 261 267 271 277 280 282 284 285 285 287 289
300 299 297 294 293 294 294 292 288 288 291 292 292 295 295 286 276 276 279 277 273 273 276 278 279 278 278 280 280 276 269 266 265 262 258 256 256 256 256 257 258 258 260 260 260 258 258 259 259 259 258 257 255 253 250 246 245 246 244 241 241 244 243 242 243 243 243 245 247 248 248 250 255 261 270 277 283 288 292 295 296 297 296 296 296
299 297 295 294 294 294 293 292 290 288 289 291 292 295 295 290 282 281 283 284 282 278 276 277 279 279 276 276 278 278 273 268 265 264 263 261 260 258 256 255 255 257 259 261 261 259 257 258 260 259 258 259 257 254 251 248 245 244 243 241 238 239 241 240 237 236 236 236 238 242 243 247 255 265 274 282 288 294 297 298 300 301 302 301 300
300 297 295 294 295 294 293 291 290 288 287 289 290 291 291 290 288 289 291 292 291 289 285 280 277 278 278 275 274 274 274 271 268 266 266 265 265 264 261 257 255 255 256 259 261 259 256 257 260 260 257 256 255 253 251 248 244 241 240 238 235 235 239 239 234 228 228 232 237 245 251 255 259 264 271 279 287 294 297 298 297 298 298 299 302
299 298 296 295 295 294 293 291 291 289 287 285 283 285 287 288 288 291 291 288 286 288 288 282 275 272 274 276 274 273 272 272 270 267 266 266 265 265 266 266 264 261 259 259 261 261 257 251 250 252 254 254 255 253 249 244 239 234 233 237 237 234 234 236 233 227 227 233 240 248 256 262 268 275 280 283 285 292 299 303 302 301 301 303 306
298 298 297 296 296 295 293 291 290 289 287 284 280 280 282 282 282 283 284 282 281 284 285 281 276 272 272 275 276 274 271 270 268 266 265 265 264 262 262 262 262 264 264 259 256 260 262 254 241 238 243 248 251 250 246 240 234 226 224 231 238 237 232 232 235 238 239 240 245 254 259 263 271 283 293 297 297 299 305 309 309 308 308 309 310
299 299 298 297 296 294 293 291 288 286 285 284 282 281 282 281 279 278 279 280 280 281 280 278 274 271 270 272 273 273 272 270 268 266 264 263 262 261 260 257 254 253 252 246 242 247 256 256 246 239 239 243 246 248 245 239 233 226 223 226 234 237 237 240 251 262 265 262 263 269 273 274 279 290 300 303 303 304 308 311 312 311 310 309 309
299 299 299 298 296 294 293 290 287 286 285 283 280 280 283 284 281 278 279 279 278 277 277 273 267 265 267 268 269 268 268 267 265 265 264 263 261 259 258 256 252 245 239 239 243 247 248 248 248 247 245 244 246 248 247 241 235 231 230 231 233 237 244 254 266 276 280 280 280 282 285 289 293 298 301 302 302 303 306 309 309 309 308 306 305
299 299 298 297 296 294 292 289 287 287 286 284 280 280 284 285 282 280 280 281 282 282 282 275 266 262 263 264 262 261 263 264 262 262 262 263 262 259 257 254 251 245 238 235 241 247 249 249 252 253 249 247 247 246 243 240 237 234 234 235 237 242 253 266 274 279 283 287 288 290 291 292 294 295 296 297 298 301 303 303 303 304 304 303 302
298 298 298 296 295 293 291 289 288 287 285 282 280 280 282 283 284 285 284 284 286 288 288 282 271 262 258 257 255 252 254 258 261 262 263 264 264 263 260 254 251 247 239 231 231 238 244 249 254 254 251 250 250 246 241 239 238 235 235 237 241 247 257 267 274 278 281 283 285 286 287 289 290 291 292 294 296 298 298 297 297 298 299 300 302
297 297 296 296 294 293 291 291 290 288 284 280 280 281 283 284 285 285 283 282 283 284 285 283 275 263 257 258 258 253 248 249 252 255 260 263 265 266 266 262 257 252 245 236 232 235 240 246 251 252 249 248 249 247 243 240 238 238 239 240 241 244 254 264 272 276 278 279 280 281 283 286 288 290 291 293 294 295 295 295 296 297 298 299 300